Zurück zum Katalog

HJS-7B

AktivWissenschaftLEO
NORAD 65618·PAYLOAD·🇨🇳 China

Gestartet Sep 16, 2025 von Jiuquan Satellite Launch Center

Loading…

Nächste Überflüge (nächste 24 Stunden)

TLE

AktuellSource: Space-Track

Epoche: Sep 14, 2026, 14:54 UTC

1 65618U 25209B   26257.62134949 -.00000108  00000-0  35417-4 0  9998
2 65618  50.0006  31.6064 0001414  57.8753 302.2261 13.41472295 49641

Verfolge HJS-7B in Echtzeit mit AllMySat

Download on the App Store